User: anonymous   Login
Location: Unspecified
(0.0000°N, 0.0000°E)
Time: 19:27:41
(UTC+00:00)
Language:

DX 1 - Orbit

View from above orbital plane
View from above orbital plane
View from above satellite
View from above satellite

Ground track
Ground track

The orbit data is extracted from the following two-line orbital elements,

1 40071U 14037C   18018.71448596  .00000095  00000-0  19637-4 0  9993
2 40071  98.3555 143.6146 0009888  82.0957 278.1380 14.81113523190871
Epoch (UTC): 18 January 2018 17:08:51
Eccentricity: 0.0009888
inclination: 98.3555°
perigee height: 619 km
apogee height: 633 km
right ascension of ascending node: 143.6146°
argument of perigee: 82.0957°
revolutions per day: 14.81113523
mean anomaly at epoch: 278.1380°
orbit number at epoch: 19087

The dashed part of the orbit path shows where the satellite is in the earth's shadow,  

DLR